Regional Weather Roundup
Issued by NWS

Home | Current Version | Previous Version | Graphics & Text | Print | Product List | Glossary On
Versions: 1 2 3 4 5 6 7 8 9 10 11 12 13 14 15 16 17 18 19 20 21 22 23 24 25 26 27 28 29 30 31 32 33 34 35 36 37 38 39 40 41 42 43 44 45 46 47 48 49 50
000
ASUS45 KABQ 181801
RWRNM
WEATHER ROUNDUP FOR NEW MEXICO
NATIONAL WEATHER SERVICE ALBUQUERQUE NM
1100 AM MST THU DEC 18 2014

NOTE: "FAIR" MEANS FEW OR NO CLOUDS BELOW 12,000 FEET AGL WITH NO
       SIGNIFICANT WEATHER OR OBSTRUCTIONS TO VISION.

      THIS PRODUCT IS RELEASED AS TWO VERSIONS.  ONE VERSION NEAR
      THE TOP OF THE HOUR CONTAINING PRELIMINARY DATA FROM ALBUQUERQUE
      AND OTHER STATIONS.  A FINAL VERSION WITH ADDITIONAL DATA IS
      ISSUED ABOUT 10 MINUTES AFTER THE HOUR.

NMZ501-503-504-510>518-181900-
NORTHWEST PLATEAU/NORTHCENTRAL MOUNTAINS

CITY           SKY/WX    TMP DP  RH WIND       PRES   REMARKS
FARMINGTON     PTSUNNY   37  33  85 NW7       30.15S WCI  32
6HR MIN TEMP:  32; 6HR MAX TEMP:  38;

SANTA FE       MOSUNNY   35  29  78 NW3       30.13F
6HR MIN TEMP:  20; 6HR MAX TEMP:  35;

TAOS           CLOUDY    30  25  80 W6        30.14S WCI  24

$$
NMZ402-403-502-505>509-181900-
WESTCENTRAL MOUNTAINS/SOUTHWEST MOUNTAINS

CITY           SKY/WX    TMP DP  RH WIND       PRES   REMARKS
GALLUP         CLOUDY    36  25  64 CALM      30.15S
6HR MIN TEMP:  29; 6HR MAX TEMP:  36;

GRANTS         CLOUDY    35  27  73 CALM      30.16F
SILVER CITY    CLOUDY    43  34  70 CALM      30.17S

$$
NMZ407-409-411-412-181900-
SOUTHERN DESERTS

CITY           SKY/WX    TMP DP  RH WIND       PRES   REMARKS
DEMING         CLOUDY    47  38  71 SW5       30.15F
6HR MIN TEMP:  39; 6HR MAX TEMP:  48; 6HR PCP: TRACE;

HOLLOMAN AFB   SUNNY     54  35  49 SW7       30.12F
ALAMOGORDO     SUNNY     50  32  50 W3        30.14F
T OR C         PTSUNNY   48  30  49 VRB6      30.11F
6HR MIN TEMP:  36; 6HR MAX TEMP:  49;


$$
NMZ519>523-181900-
CENTRAL VALLEYS/CENTRAL HIGHLANDS

CITY           SKY/WX    TMP DP  RH WIND       PRES   REMARKS
ALBUQUERQUE    PTSUNNY   40  31  70 VRB5      30.16F
6HR MIN TEMP:  29; 6HR MAX TEMP:  40;

CLINES CORNERS MOSUNNY   34  27  75 W13       30.09F WCI  25
6HR MIN TEMP:  22; 6HR MAX TEMP:  34;

BELEN          FAIR      39  30  72 NE7       30.16F WCI  34
6HR MIN TEMP:  27; 6HR MAX TEMP:  40;

SOCORRO        NOT AVBL

$$
NMZ524>526-539-540-181900-
SOUTHCENTRAL MOUNTAINS

CITY           SKY/WX    TMP DP  RH WIND       PRES   REMARKS
RUIDOSO        MOSUNNY   41  27  56 S6        30.14F

$$
NMZ527>531-181900-
NORTHEAST HIGHLANDS/NORTHEAST PLAINS

CITY           SKY/WX    TMP DP  RH WIND       PRES   REMARKS
LAS VEGAS      MOSUNNY   41  19  41 SW9       30.08F
6HR MIN TEMP:  20; 6HR MAX TEMP:  41;

RATON          SUNNY     40  24  53 SE6       30.05F
6HR MIN TEMP:  18; 6HR MAX TEMP:  40;

CLAYTON        SUNNY     44  32  62 CALM      30.08F
6HR MIN TEMP:  24; 6HR MAX TEMP:  44;


$$
NMZ532>537-181900-
EASTCENTRAL PLAINS

CITY           SKY/WX    TMP DP  RH WIND       PRES   REMARKS
TUCUMCARI      CLOUDY    34  32  92 CALM      30.11F
6HR MIN TEMP:  24; 6HR MAX TEMP:  35;

CANNON AFB     NOT AVBL
CLOVIS AIRPORT SUNNY     52  27  37 W18       30.09F

$$
NMZ028-029-538-181900-
SOUTHEAST PLAINS

CITY           SKY/WX    TMP DP  RH WIND       PRES   REMARKS
ROSWELL        CLOUDY    53  32  44 CALM      30.11F
6HR MIN TEMP:  28; 6HR MAX TEMP:  53;

ARTESIA        SUNNY     52  32  46 E6        30.13F
CARLSBAD       SUNNY     57  35  43 N8        30.11F
6HR MIN TEMP:  44; 6HR MAX TEMP:  58;

HOBBS          SUNNY     55  28  35 W6        30.13F


$$



USA.gov is the U.S. government's official web portal to all federal, state and local government web resources and services.